STARLINK-30086, 56297

Orbit data source: Space-Track

STARLINK-30086, 56297 is a payload satellite owned by SpaceX/Seattle (US) in LEO that was launched on Wed, 19 Apr 2023 UTC via an FALCON 9 launch vehicle from the Air Force Eastern Test Range (AFETR). Payload-class satellites include a variety of spacecraft equipped with specific instruments for various scientific and technological missions. These include communications satellites like Starlink; space stations such as the ISS; scientific satellites like the Hubble; Earth observation satellites from companies like Planet Labs, Umbra, and HawkEye 360; GPS; miniature CubeSats for education and research; and military/defense satellites.

Loading next visibility...
Identifier
56297, 2023-056M
Orbit
LEO
Last TLE update
12 hours ago
Origin
Manufacturer
SpaceX/Seattle
Mission
Operational Commercial Communications
Bus & Motor
STARLINK V2M, Unknown motor
Mass
730 kg wet, ~700 kg dry
Launch date (UTC)
2023-04-19 (2 years ago)
Launch vehicle
FALCON 9
Launch site
Air Force Eastern Test Range (AFETR)
Object type
Payload
Rocket body
Debris
Shape & HBR
Box + 2 Pan, 29 m
Radar Cross Section
33.884 m², Large (>1 m²)

Expand to show TLE details & history

TLE from 12 hours ago
0 STARLINK-30086
1 56297U 23056M   25130.49241816  .00000988  00000-0  88174-4 0  9998
2 56297  43.0021  57.8210 0000866 279.9000  80.1744 15.02533147114417
Epoch: 2025-05-10T11:49Z
Definitive object data (Epoch: 2025-05-10T11:49:04.929Z)
Latitude
-0.00004°
Longitude
12.01699°
Altitude
558.764 km
Speed
7.584 km/s
True Right ascension
03h 51m 17s
True Declination
0° 00' 00"
Sunlit
Object was in daylight at TLE epoch
Visualization TLE readout
Latitude
-24.86999°
Longitude
-141.10485°
Altitude
564.944 km
Speed
7.579 km/s
Apparent Right ascension
18h 45m 44s
Apparent Declination
-33° 22' 45"
Sunlit
Object is in full shadow
Visualization observer readout
Local Sidereal Time
08:12:43
Azimuth
76.249° E
Elevation
-71.427°
Doppler factor
1
Orbital elements
Apogee altitude
561.613 km
Perigee altitude
560.411 km
Semi-major axis
6,939.149 km
Eccentricity
0.0000866
Inclination
43.0021°
RAAN
57.821°
Arg. of periapsis
279.9°
True anomaly
80.18418°
Mean anomaly
80.1744°
Eccentric anomaly
80.17929°
Mean motion
3.75477 °/min
BSTAR
0.000088174
Orbital period
95.88 mins
Loading maneuver chart data...
Loading SW <> Apogee altitude chart data...
Loading historical data...
Loading historical data...
Loading historical data...
Loading historical data...
Loading historical data...
Loading historical data...
Loading historical data...

STARLINK-30086 Visibility forecast

Observer location: undefined°, undefined°

Span
Click to sort rows by Start time (UTC) header in descending order
Start Az.
Max El. time (UTC)
Max El. Az.
Max El.
End time (UTC)
End Az.
7 mins2025-05-11 00:54:04.470Z278.175° WNW2025-05-11 00:57:04.470Z328.873° NNW38.917°2025-05-11 01:01:04.470Z73.155° E
6 mins2025-05-11 02:36:04.470Z293.185° NW2025-05-11 02:38:04.470Z332.942° NNW42.588°2025-05-11 02:42:04.470Z97.836° ESE
5 mins2025-05-11 04:17:04.470Z261.129° W2025-05-11 04:19:04.470Z206.684° SW31.611°2025-05-11 04:22:04.470Z146.961° SSE
5 mins2025-05-11 21:31:04.470Z189.197° SSW2025-05-11 21:33:04.470Z151.421° SSE23.085°2025-05-11 21:36:04.470Z95.781° ESE
6 mins2025-05-11 23:11:04.470Z250.897° W2025-05-11 23:14:04.470Z71.487° E43.745°2025-05-11 23:17:04.470Z71.915° E
|